"Pseudo-MPEC" for P10HO8T

Created 2018 Jun 17 17:18:18 UT using Find_Orb

Click here for an explanation of pseudo-MPECs

 
 Astrometry: 
     P10HO8T  C2018 06 05xVAstrometryf%V@qMo.N!Q%vmy%h;ltwPFZn:[oXk57!U.N$pW%F51
     P10HO8T  C2018 06 05H\!o5Z7QM2N#XbKO`D4Q3Shh[G_8L-u(V0bm;5%Cl8+qgaWePcxVF51
     P10HO8T  C2018 06 05@xwg]6:Devu^n7NM4te@F,[#q1foA\6tZW1JqV5m0d,XU4`j.K0TF51
     P10HO8T  C2018 06 14XE2)1RyRiiLIF^Mrnb?XL%k(9QrV\0h[BrlOKEnKAncH@10`D6e5F51
     P10HO8T  C2018 06 14rY@D[PZk?hk.qp-i3redacted;d2v2Sbvm,22A_k;]EL4n/BeY*TF51
     P10HO8T  C2018 06 14w=r0m*=Uda8v\QBQ5w-N;AB%ca^Go\gF2q=Aw')jW?uSq00H=^c^F51
     P10HO8T |C2018 06 15[hv'#l=B3cT_Zu6;XLRV#f6K^N4vcWR`^V,Uxs,XR[oGnOsF+SIL807
     P10HO8T |C2018 06 15Ct0Lb`5s9O1I[fG/^-gjh\7\f1\qd+CbseeY-4vHIoaS[0hG1w`r807
     P10HO8T |C2018 06 15eP`!hwgSY_=?\YxDmtlqD-J%q8\6@TUqnV9EDl%]cx?CP=6K/-Ip807
     P10HO8T |C2018 06 171(AJ.#:)1oK9Ko+*Rn\Lk3i(^Sia#UiE%QsZ4h4nmMsc2Xo[:uLM807
     P10HO8T |C2018 06 17e.erRLu-otf!w_5e'J3tQ,]dd-yY(K,G4L?fRoMHC9#@R8_YbrSn807
     P10HO8T |C2018 06 17Yk2wR1VZ6=\JiUjAJ=CnVFh._(A!Tuog@'er8u,)lhS[DDWNEOCP807

Station data:
(807) Cerro Tololo Observatory, La Serena  (S30.169136 W70.805900)  Chile.
   1.5-m Ritchey-Chrétien.
(F51) Pan-STARRS 1, Haleakala  (N20.707235 W156.255910)  US/Hawaii.
   Observers N. Primak, A. Schultz, S. Watters, J. Thiel, T. Goggia. Measurer
   PS1 Science Consortium. 1.8-m Ritchey-Chrétien + CCD.

Orbital elements:  P10HO8T
   Perihelion 2018 Oct 18.325307 +/- 0.436 TT =  7:48:26 (JD 2458409.825307)
Epoch 2018 Jun 17.0 TT = JDT 2458286.5   Earth MOID: 0.1929   Ma: 0.0354
M 316.83881 +/- 0.22                (J2000 ecliptic)          AutoNEOCP
n   0.34997834 +/- 0.000681         Peri.   74.19610 +/- 0.21
a   1.99423011 +/- 0.00259          Node   263.66622 +/- 0.045
e   0.4073247 +/- 0.000873          Incl.    4.82311 +/- 0.014
P   2.82                   H 20.7   G  0.15   U  7.9  
q 1.18193081 +/- 0.000227    Q 2.80652941 +/- 0.0054
From 12 observations 2018 June 5-17; mean residual 0".11
Residuals in arcseconds: 
180605 F51  .13+  .04-    180614 F51  .10-  .08+    180615 807  .02-  .19-    
180605 F51  .05-  .19+    180614 F51  .11+  .04+    180617 807  .02-  .11-    
180605 F51  .07-  .15-    180615 807  .06+  .07-    180617 807  .03+  .04-    
180614 F51  .09-  .16+    180615 807  .03+  .14-    180617 807  .02-  .26+    

Ephemerides (geocentric):
Date (UTC) HH   RA              Dec         delta   r     elong  mag " sig PA
---- -- -- --  -------------   -----------  ------ ------ -----  --- ---- ---
2018 06 17 17  14 55 59.810   -19 26 30.01  .71704 1.6364 141.0 22.2  .28  43
2018 06 17 18  14 55 57.768   -19 26 05.99  .71705 1.6362 140.9 22.2  .28  43
2018 06 17 19  14 55 55.730   -19 25 41.99  .71707 1.6360 140.9 22.2  .29  43
2018 06 17 20  14 55 53.697   -19 25 18.00  .71708 1.6358 140.8 22.2  .30  43
2018 06 17 21  14 55 51.670   -19 24 54.02  .71709 1.6355 140.8 22.2  .31  43
2018 06 17 22  14 55 49.647   -19 24 30.06  .71710 1.6353 140.7 22.2  .31  44
2018 06 17 23  14 55 47.630   -19 24 06.12  .71712 1.6351 140.7 22.2  .32  44
2018 06 18 00  14 55 45.617   -19 23 42.20  .71713 1.6349 140.6 22.2  .33  44
2018 06 18 01  14 55 43.610   -19 23 18.29  .71714 1.6346 140.6 22.2  .34  44
2018 06 18 02  14 55 41.608   -19 22 54.39  .71716 1.6344 140.5 22.2  .34  44
2018 06 18 03  14 55 39.610   -19 22 30.51  .71717 1.6342 140.5 22.2  .35  44
2018 06 18 04  14 55 37.618   -19 22 06.65  .71719 1.6340 140.4 22.2  .36  44
2018 06 18 05  14 55 35.631   -19 21 42.80  .71720 1.6337 140.4 22.2  .37  45
2018 06 18 06  14 55 33.649   -19 21 18.97  .71721 1.6335 140.3 22.2  .37  45
2018 06 18 07  14 55 31.671   -19 20 55.16  .71723 1.6333 140.3 22.2  .38  45
2018 06 18 08  14 55 29.699   -19 20 31.36  .71724 1.6331 140.2 22.2  .39  45
2018 06 18 09  14 55 27.733   -19 20 07.58  .71726 1.6328 140.2 22.2  .40  45
2018 06 18 10  14 55 25.771   -19 19 43.82  .71728 1.6326 140.1 22.2  .41  45
2018 06 18 11  14 55 23.814   -19 19 20.07  .71729 1.6324 140.1 22.2  .41  45
2018 06 18 12  14 55 21.862   -19 18 56.34  .71731 1.6321 140.0 22.2  .42  45
2018 06 18 13  14 55 19.916   -19 18 32.63  .71732 1.6319 140.0 22.2  .43  46
2018 06 18 14  14 55 17.974   -19 18 08.93  .71734 1.6317 139.9 22.2  .44  46
2018 06 18 15  14 55 16.038   -19 17 45.25  .71736 1.6315 139.9 22.2  .45  46
2018 06 18 16  14 55 14.106   -19 17 21.58  .71737 1.6312 139.8 22.2  .45  46
2018 06 18 17  14 55 12.180   -19 16 57.94  .71739 1.6310 139.8 22.2  .46  46
2018 06 18 18  14 55 10.259   -19 16 34.30  .71741 1.6308 139.7 22.2  .47  46
2018 06 18 19  14 55 08.343   -19 16 10.69  .71743 1.6306 139.7 22.2  .48  46
2018 06 18 20  14 55 06.432   -19 15 47.09  .71744 1.6303 139.6 22.2  .49  46
2018 06 18 21  14 55 04.526   -19 15 23.51  .71746 1.6301 139.6 22.2  .50  47
2018 06 18 22  14 55 02.626   -19 14 59.95  .71748 1.6299 139.5 22.2  .51  47
2018 06 18 23  14 55 00.730   -19 14 36.40  .71750 1.6297 139.5 22.2  .52  47
2018 06 19 00  14 54 58.840   -19 14 12.88  .71752 1.6294 139.4 22.2  .52  47
2018 06 19 01  14 54 56.955   -19 13 49.36  .71754 1.6292 139.4 22.2  .53  47
2018 06 19 02  14 54 55.075   -19 13 25.87  .71756 1.6290 139.3 22.2  .54  47
2018 06 19 03  14 54 53.200   -19 13 02.39  .71757 1.6288 139.3 22.2  .55  47
2018 06 19 04  14 54 51.330   -19 12 38.93  .71759 1.6285 139.2 22.2  .56  47
2018 06 19 05  14 54 49.465   -19 12 15.49  .71761 1.6283 139.2 22.2  .57  48
2018 06 19 06  14 54 47.606   -19 11 52.07  .71763 1.6281 139.2 22.2  .58  48
2018 06 19 07  14 54 45.751   -19 11 28.66  .71765 1.6279 139.1 22.2  .59  48
2018 06 19 08  14 54 43.902   -19 11 05.27  .71767 1.6276 139.1 22.2  .60  48
2018 06 19 09  14 54 42.058   -19 10 41.90  .71770 1.6274 139.0 22.2  .61  48
2018 06 19 10  14 54 40.219   -19 10 18.54  .71772 1.6272 139.0 22.2  .62  48
2018 06 19 11  14 54 38.386   -19 09 55.21  .71774 1.6269 138.9 22.2  .63  48
2018 06 19 12  14 54 36.557   -19 09 31.89  .71776 1.6267 138.9 22.2  .64  48
2018 06 19 13  14 54 34.734   -19 09 08.58  .71778 1.6265 138.8 22.2  .64  49
2018 06 19 14  14 54 32.915   -19 08 45.30  .71780 1.6263 138.8 22.2  .65  49
2018 06 19 15  14 54 31.102   -19 08 22.04  .71782 1.6260 138.7 22.2  .66  49
2018 06 19 16  14 54 29.295   -19 07 58.79  .71785 1.6258 138.7 22.2  .67  49